When you browse on this site, cookies collect data to enhance your experience and personalize the content and advertising you see.
Visit our Privacy Policy to learn more. By continuing to use the site, you agree to this use of cookies and data.
  • în România
  • Lista ţărilor
  • Pe 7 zile
  • Temperatura apei
  • Meteo pe hartă
  • Widget-uri
  • user-avatar
    Intrare

    Meteo pe oră la Talica

    Astăzi, 17 Octombrie, Joi

    Timp Temperatura Precipitaţii Vânt Presiune Umiditate
    00:00 +11°C° 0 mm 3 m/s 742 mmHg 85%
    01:00 +10°C° 0 mm 3 m/s 742 mmHg 85%
    02:00 +10°C° 0 mm 3 m/s 742 mmHg 84%
    03:00 +10°C° 0 mm 3 m/s 742 mmHg 86%
    04:00 +10°C° 0 mm 3 m/s 742 mmHg 87%
    05:00 +9°C° 0 mm 3 m/s 741 mmHg 89%
    06:00 +10°C° 0.1 mm 3 m/s 741 mmHg 89%
    07:00 +10°C° 0.1 mm 3 m/s 741 mmHg 90%
    08:00 +10°C° 0 mm 3 m/s 741 mmHg 84%
    09:00 +10°C° 0.1 mm 3 m/s 741 mmHg 86%
    10:00 +11°C° 0.1 mm 3 m/s 742 mmHg 88%
    11:00 +12°C° 0.1 mm 4 m/s 742 mmHg 89%
    12:00 +12°C° 0 mm 4 m/s 742 mmHg 84%
    13:00 +13°C° 0 mm 4 m/s 741 mmHg 79%
    14:00 +14°C° 0 mm 3 m/s 741 mmHg 74%
    15:00 +13°C° 0.4 mm 4 m/s 741 mmHg 80%
    16:00 +12°C° 0.4 mm 4 m/s 741 mmHg 85%
    17:00 +11°C° 0.4 mm 4 m/s 741 mmHg 91%
    18:00 +11°C° 0.1 mm 4 m/s 741 mmHg 91%
    19:00 +11°C° 0.1 mm 3 m/s 741 mmHg 92%
    20:00 +11°C° 0.1 mm 3 m/s 742 mmHg 92%
    21:00 +11°C° 0.1 mm 3 m/s 742 mmHg 93%
    22:00 +12°C° 0.1 mm 2 m/s 742 mmHg 94%
    23:00 +10°C° 0.1 mm 2 m/s 742 mmHg 95%

    Mâine, 18 Octombrie, Vineri

    Timp Temperatura Precipitaţii Vânt Presiune Umiditate
    00:00 +10°C° 0.1 mm 2 m/s 743 mmHg 96%
    01:00 +10°C° 0.1 mm 2 m/s 743 mmHg 96%
    02:00 +12°C° 0.1 mm 2 m/s 744 mmHg 97%
    03:00 +12°C° 0.1 mm 2 m/s 744 mmHg 96%
    04:00 +12°C° 0.1 mm 2 m/s 744 mmHg 96%
    05:00 +12°C° 0.1 mm 2 m/s 744 mmHg 96%
    06:00 +12°C° 0 mm 2 m/s 744 mmHg 95%
    07:00 +12°C° 0 mm 2 m/s 745 mmHg 94%
    08:00 +10°C° 0 mm 2 m/s 745 mmHg 93%
    09:00 +12°C° 0 mm 2 m/s 745 mmHg 91%
    10:00 +12°C° 0 mm 2 m/s 745 mmHg 89%
    11:00 +12°C° 0 mm 2 m/s 746 mmHg 87%
    12:00 +13°C° 0 mm 2 m/s 746 mmHg 86%
    13:00 +13°C° 0 mm 2 m/s 746 mmHg 86%
    14:00 +13°C° 0 mm 2 m/s 746 mmHg 85%
    15:00 +13°C° 0 mm 2 m/s 746 mmHg 87%
    16:00 +12°C° 0 mm 2 m/s 746 mmHg 90%
    17:00 +12°C° 0 mm 1 m/s 746 mmHg 93%
    18:00 +11°C° 0 mm 1 m/s 746 mmHg 94%
    19:00 +11°C° 0 mm 1 m/s 746 mmHg 95%
    20:00 +11°C° 0 mm 1 m/s 746 mmHg 97%
    21:00 +11°C° 0 mm 1 m/s 746 mmHg 96%
    22:00 +11°C° 0 mm 1 m/s 746 mmHg 96%
    23:00 +11°C° 0 mm 1 m/s 746 mmHg 95%

    Poimâine, 19 Octombrie, Sâmbătă

    Timp Temperatura Precipitaţii Vânt Presiune Umiditate
    00:00 +10°C° 0 mm 2 m/s 746 mmHg 95%
    01:00 +10°C° 0 mm 2 m/s 746 mmHg 95%
    02:00 +9°C° 0 mm 2 m/s 746 mmHg 95%
    03:00 +9°C° 0 mm 2 m/s 746 mmHg 95%
    04:00 +9°C° 0 mm 2 m/s 746 mmHg 95%
    05:00 +9°C° 0 mm 2 m/s 746 mmHg 95%
    06:00 +9°C° 0 mm 2 m/s 746 mmHg 94%
    07:00 +10°C° 0 mm 3 m/s 746 mmHg 92%
    08:00 +10°C° 0 mm 3 m/s 746 mmHg 91%
    09:00 +11°C° 0 mm 3 m/s 746 mmHg 88%
    10:00 +11°C° 0 mm 3 m/s 746 mmHg 85%
    11:00 +12°C° 0 mm 3 m/s 746 mmHg 82%
    12:00 +13°C° 0 mm 3 m/s 746 mmHg 82%
    13:00 +13°C° 0 mm 3 m/s 746 mmHg 81%
    14:00 +13°C° 0 mm 3 m/s 746 mmHg 80%
    15:00 +13°C° 0 mm 3 m/s 746 mmHg 84%
    16:00 +12°C° 0 mm 3 m/s 746 mmHg 87%
    17:00 +12°C° 0 mm 2 m/s 746 mmHg 90%
    18:00 +12°C° 0 mm 2 m/s 746 mmHg 92%
    19:00 +10°C° 0 mm 2 m/s 746 mmHg 93%
    20:00 +10°C° 0 mm 2 m/s 746 mmHg 95%
    21:00 +10°C° 0 mm 2 m/s 746 mmHg 95%
    22:00 +10°C° 0 mm 2 m/s 746 mmHg 95%
    23:00 +10°C° 0 mm 2 m/s 746 mmHg 95%

    20 Octombrie, Duminică

    Timp Temperatura Precipitaţii Vânt Presiune Umiditate
    00:00 +10°C° 0 mm 2 m/s 746 mmHg 95%
    01:00 +10°C° 0 mm 2 m/s 746 mmHg 95%
    02:00 +10°C° 0 mm 2 m/s 746 mmHg 95%
    03:00 +10°C° 0.5 mm 2 m/s 746 mmHg 96%
    04:00 +12°C° 0.5 mm 2 m/s 746 mmHg 96%
    05:00 +12°C° 0.5 mm 2 m/s 746 mmHg 97%
    06:00 +12°C° 0.1 mm 2 m/s 746 mmHg 96%
    07:00 +12°C° 0.1 mm 2 m/s 746 mmHg 96%
    08:00 +12°C° 0.1 mm 2 m/s 746 mmHg 95%
    09:00 +13°C° 0.1 mm 2 m/s 746 mmHg 93%
    10:00 +13°C° 0.1 mm 2 m/s 746 mmHg 91%
    11:00 +13°C° 0.1 mm 2 m/s 746 mmHg 89%
    12:00 +14°C° 0.1 mm 2 m/s 746 mmHg 88%
    13:00 +14°C° 0.1 mm 2 m/s 746 mmHg 87%
    14:00 +14°C° 0.1 mm 2 m/s 746 mmHg 86%
    15:00 +14°C° 0 mm 2 m/s 746 mmHg 88%
    16:00 +13°C° 0 mm 2 m/s 746 mmHg 90%
    17:00 +12°C° 0 mm 2 m/s 746 mmHg 92%
    18:00 +12°C° 0 mm 2 m/s 746 mmHg 93%
    19:00 +12°C° 0 mm 2 m/s 746 mmHg 94%
    20:00 +12°C° 0 mm 2 m/s 746 mmHg 94%
    21:00 +10°C° 0 mm 2 m/s 746 mmHg 95%
    22:00 +10°C° 0 mm 2 m/s 746 mmHg 95%
    23:00 +10°C° 0 mm 2 m/s 746 mmHg 96%

    21 Octombrie, Luni

    Timp Temperatura Precipitaţii Vânt Presiune Umiditate
    00:00 +10°C° 0 mm 2 m/s 746 mmHg 96%
    01:00 +10°C° 0 mm 2 m/s 746 mmHg 96%
    02:00 +10°C° 0 mm 2 m/s 746 mmHg 96%
    03:00 +9°C° 0 mm 2 m/s 746 mmHg 96%
    04:00 +9°C° 0 mm 2 m/s 746 mmHg 96%
    05:00 +9°C° 0 mm 2 m/s 745 mmHg 96%
    06:00 +9°C° 0 mm 2 m/s 745 mmHg 96%
    07:00 +10°C° 0 mm 2 m/s 745 mmHg 96%
    08:00 +10°C° 0 mm 2 m/s 745 mmHg 96%
    09:00 +12°C° 0 mm 2 m/s 745 mmHg 91%
    10:00 +13°C° 0 mm 2 m/s 745 mmHg 87%
    11:00 +14°C° 0 mm 2 m/s 745 mmHg 83%
    12:00 +15°C° 0 mm 2 m/s 745 mmHg 82%
    13:00 +14°C° 0 mm 3 m/s 744 mmHg 82%
    14:00 +16°C° 0 mm 3 m/s 744 mmHg 81%
    15:00 +14°C° 0 mm 3 m/s 743 mmHg 85%
    16:00 +14°C° 0 mm 2 m/s 743 mmHg 89%
    17:00 +13°C° 0 mm 2 m/s 743 mmHg 93%
    18:00 +13°C° 0 mm 2 m/s 742 mmHg 92%
    19:00 +12°C° 0 mm 3 m/s 742 mmHg 92%
    20:00 +12°C° 0 mm 3 m/s 741 mmHg 92%
    21:00 +12°C° 0 mm 3 m/s 741 mmHg 93%
    22:00 +12°C° 0 mm 3 m/s 741 mmHg 93%
    23:00 +12°C° 0 mm 3 m/s 740 mmHg 93%

    22 Octombrie, Marţi

    Timp Temperatura Precipitaţii Vânt Presiune Umiditate
    00:00 +12°C° 0 mm 3 m/s 740 mmHg 94%
    01:00 +12°C° 0 mm 3 m/s 740 mmHg 95%
    02:00 +12°C° 0 mm 3 m/s 740 mmHg 95%
    03:00 +12°C° 0.3 mm 3 m/s 740 mmHg 95%
    04:00 +12°C° 0.3 mm 3 m/s 740 mmHg 95%
    05:00 +12°C° 0.3 mm 3 m/s 740 mmHg 95%
    06:00 +11°C° 1.2 mm 4 m/s 740 mmHg 93%
    07:00 +10°C° 1.2 mm 4 m/s 741 mmHg 91%
    08:00 +9°C° 1.2 mm 5 m/s 741 mmHg 89%
    09:00 +9°C° 0.5 mm 5 m/s 742 mmHg 86%
    10:00 +9°C° 0.5 mm 5 m/s 743 mmHg 82%
    11:00 +9°C° 0.5 mm 5 m/s 744 mmHg 79%
    12:00 +9°C° 0 mm 5 m/s 745 mmHg 76%
    13:00 +8°C° 0 mm 5 m/s 745 mmHg 74%
    14:00 +8°C° 0 mm 5 m/s 746 mmHg 71%
    15:00 +8°C° 0 mm 4 m/s 747 mmHg 74%
    16:00 +8°C° 0 mm 3 m/s 747 mmHg 77%
    17:00 +8°C° 0 mm 3 m/s 748 mmHg 80%
    18:00 +8°C° 0 mm 2 m/s 748 mmHg 82%
    19:00 +7°C° 0 mm 2 m/s 749 mmHg 84%
    20:00 +7°C° 0 mm 2 m/s 749 mmHg 86%
    21:00 +8°C° 0 mm 1 m/s 749 mmHg 88%
    22:00 +8°C° 0 mm 1 m/s 750 mmHg 90%
    23:00 +8°C° 0 mm 1 m/s 750 mmHg 91%
    Arată mai mult